,,,PA_Meas_PMT16A,,PR_Meas_QMR101_102,,RH_Meas_QMH101,,SR_Meas_QMS101,,TA_Meas_QMH101,,GenWind,,GenWind,
date,time,status,PA,status,PR,status,RH,status,SR,status,TA,status,DirAvg,status,SpdAvg,
2011-09-16, 00:00:04,VALID,1002.25,VALID,0,VALID,87.0311,VALID,0,VALID,24.5794,VALID,228,VALID,0.752734,
2011-09-16, 00:01:04,VALID,1002.24,VALID,0,VALID,87.3363,VALID,0.112286,VALID,24.5404,VALID,228,VALID,0.557813,
2011-09-16, 00:02:04,VALID,1002.21,VALID,0,VALID,87.466,VALID,0.112286,VALID,24.4604,VALID,253,VALID,1.24336,
2011-09-16, 00:03:04,VALID,1002.18,VALID,0,VALID,87.6567,VALID,0,VALID,24.4409,VALID,253,VALID,0.788281,
2011-09-16, 00:04:04,VALID,1002.19,VALID,0,VALID,87.9543,VALID,0,VALID,24.4019,VALID,253,VALID,0.695313,
2011-09-16, 00:05:04,VALID,1002.1,VALID,0,VALID,87.9161,VALID,0.112286,VALID,24.3824,VALID,253,VALID,0.675391,
2011-09-16, 00:06:04,VALID,1002.08,VALID,0,VALID,88.0382,VALID,0,VALID,24.3824,VALID,253,VALID,0.272266,
2011-09-16, 00:07:04,VALID,1002.09,VALID,0,VALID,88.0534,VALID,0.112286,VALID,24.3629,VALID,246,VALID,0.742578,
2011-09-16, 00:08:04,VALID,1002.07,VALID,0,VALID,88.0763,VALID,0.112286,VALID,24.3824,VALID,246,VALID,0.923828,
2011-09-16, 00:09:04,VALID,1002.05,VALID,0,VALID,88.0534,VALID,0.112286,VALID,24.3824,VALID,256,VALID,1.03008,
2011-09-16, 00:10:04,VALID,1001.99,VALID,0,VALID,88.4349,VALID,0.112286,VALID,24.3824,VALID,292,VALID,0.895703,
2011-09-16, 00:11:04,VALID,1001.96,VALID,0,VALID,88.5265,VALID,0.112286,VALID,24.3238,VALID,291,VALID,0.575391,
2011-09-16, 00:12:04,VALID,1001.96,VALID,0,VALID,88.6714,VALID,0.112286,VALID,24.2653,VALID,292,VALID,0.413672,
2011-09-16, 00:13:04,VALID,1001.98,VALID,0,VALID,88.8927,VALID,0,VALID,24.2263,VALID,245,VALID,1.03242,
2011-09-16, 00:14:04,VALID,1001.95,VALID,0,VALID,89.2208,VALID,0.112286,VALID,24.2067,VALID,215,VALID,1.05313,
2011-09-16, 00:15:04,VALID,1001.89,VALID,0,VALID,89.2894,VALID,0,VALID,24.1872,VALID,229,VALID,0.78125,
2011-09-16, 00:16:04,VALID,1001.85,VALID,0,VALID,89.3276,VALID,0,VALID,24.1872,VALID,229,VALID,0.357422,
2011-09-16, 00:17:04,VALID,1001.85,VALID,0,VALID,88.9537,VALID,0,VALID,24.2086,VALID,229,VALID,0.641406,
2011-09-16, 00:18:04,VALID,1001.82,VALID,0,VALID,88.9843,VALID,0,VALID,24.2067,VALID,229,VALID,0.647656,
2011-09-16, 00:19:04,VALID,1001.76,VALID,0,VALID,88.5723,VALID,0.112286,VALID,24.2067,VALID,229,VALID,0.667188,
2011-09-16, 00:20:04,VALID,1001.73,VALID,0,VALID,88.3815,VALID,0.112286,VALID,24.2067,VALID,206,VALID,0.444531,
2011-09-16, 00:21:04,VALID,1001.72,VALID,0,VALID,84.9787,VALID,0,VALID,24.3433,VALID,164,VALID,2.45273,
2011-09-16, 00:22:04,VALID,1001.72,VALID,0,VALID,87.5117,VALID,0,VALID,24.519,VALID,42,VALID,1.64961,
2011-09-16, 00:23:04,VALID,1001.74,VALID,0,VALID,88.5341,VALID,0.112286,VALID,24.4604,VALID,42,VALID,1.02852,
2011-09-16, 00:24:04,VALID,1001.72,VALID,0,VALID,89.0987,VALID,0,VALID,24.4037,VALID,30,VALID,1.08906,
2011-09-16, 00:25:04,VALID,1001.69,VALID,0,VALID,89.6099,VALID,0,VALID,24.3238,VALID,30,VALID,0.810156,
2011-09-16, 00:26:04,VALID,1001.67,VALID,0,VALID,89.7549,VALID,0.112286,VALID,24.2458,VALID,30,VALID,0.859375,
2011-09-16, 00:27:04,VALID,1001.71,VALID,0,VALID,89.9837,VALID,0.112286,VALID,24.2263,VALID,30,VALID,1.17266,
2011-09-16, 00:28:04,VALID,1001.69,VALID,0,VALID,90.3194,VALID,0,VALID,24.1677,VALID,30,VALID,0.787891,
2011-09-16, 00:29:04,VALID,1001.65,VALID,0,VALID,90.7009,VALID,0,VALID,24.1287,VALID,30,VALID,0.273438,
2011-09-16, 00:30:04,VALID,1001.63,VALID,0,VALID,90.9374,VALID,0,VALID,24.1092,VALID,30,VALID,0.0367187,
2011-09-16, 00:31:04,VALID,1001.6,VALID,0,VALID,91.1053,VALID,0,VALID,24.0915,VALID,30,VALID,0.1375,
2011-09-16, 00:32:04,VALID,1001.58,VALID,0,VALID,91.1968,VALID,0,VALID,24.0701,VALID,30,VALID,0.35625,
2011-09-16, 00:33:04,VALID,1001.56,VALID,0,VALID,91.3037,VALID,0,VALID,24.0506,VALID,30,VALID,0.158984,
2011-09-16, 00:34:04,VALID,1001.55,VALID,0,VALID,91.3723,VALID,0,VALID,24.0525,VALID,30,VALID,0,
2011-09-16, 00:35:04,VALID,1001.5,VALID,0,VALID,91.3876,VALID,0,VALID,24.0525,VALID,30,VALID,0,
2011-09-16, 00:36:04,VALID,1001.48,VALID,0,VALID,91.3952,VALID,0.112286,VALID,24.0525,VALID,30,VALID,0,
2011-09-16, 00:37:04,VALID,1001.4,VALID,0,VALID,91.3952,VALID,0,VALID,24.0116,VALID,30,VALID,0.177734,
2011-09-16, 00:38:04,VALID,1001.44,VALID,0,VALID,91.4257,VALID,0,VALID,24.0116,VALID,30,VALID,0.713281,
2011-09-16, 00:39:04,VALID,1001.43,VALID,0,VALID,91.4868,VALID,0,VALID,24.0134,VALID,30,VALID,0.469141,
2011-09-16, 00:40:04,VALID,1001.38,VALID,0,VALID,91.5631,VALID,0,VALID,24.0329,VALID,30,VALID,0.664453,
2011-09-16, 00:41:04,VALID,1001.37,VALID,0,VALID,91.586,VALID,0.112286,VALID,23.9921,VALID,30,VALID,0.840234,
2011-09-16, 00:42:04,VALID,1001.33,VALID,0,VALID,91.5783,VALID,0,VALID,23.9921,VALID,30,VALID,0.633984,
2011-09-16, 00:43:04,VALID,1001.33,VALID,0,VALID,91.4715,VALID,0,VALID,24.0116,VALID,30,VALID,0.629687,
2011-09-16, 00:44:04,VALID,1001.31,VALID,0,VALID,91.4486,VALID,0,VALID,24.0311,VALID,92,VALID,0.991016,
2011-09-16, 00:45:04,VALID,1001.28,VALID,0,VALID,91.4944,VALID,0.112286,VALID,24.0506,VALID,117,VALID,1.42969,
2011-09-16, 00:46:04,VALID,1001.3,VALID,0,VALID,91.5707,VALID,0.112286,VALID,24.0311,VALID,117,VALID,1.35234,
2011-09-16, 00:47:04,VALID,1001.25,VALID,0,VALID,91.6775,VALID,0,VALID,24.0506,VALID,117,VALID,1.29258,
2011-09-16, 00:48:04,VALID,1001.23,VALID,0,VALID,91.8072,VALID,0,VALID,24.0311,VALID,117,VALID,1.32813,
2011-09-16, 00:49:04,VALID,1001.27,VALID,0,VALID,91.914,VALID,0,VALID,24.0116,VALID,117,VALID,1.35859,
2011-09-16, 00:50:04,VALID,1001.25,VALID,0,VALID,91.8988,VALID,0,VALID,23.9939,VALID,117,VALID,1.21211,
2011-09-16, 00:51:04,VALID,1001.21,VALID,0,VALID,91.9064,VALID,0,VALID,23.9726,VALID,117,VALID,1.14492,
2011-09-16, 00:52:04,VALID,1001.19,VALID,0,VALID,91.9064,VALID,0,VALID,23.9726,VALID,117,VALID,0.692578,
2011-09-16, 00:53:04,VALID,1001.18,VALID,0,VALID,91.9369,VALID,0.112286,VALID,23.9726,VALID,117,VALID,0.623828,
2011-09-16, 00:54:04,VALID,1001.13,VALID,0,VALID,91.8911,VALID,0,VALID,23.9336,VALID,87,VALID,0.946094,
2011-09-16, 00:55:04,VALID,1001.11,VALID,0,VALID,91.7538,VALID,0,VALID,23.9336,VALID,53,VALID,0.841016,
2011-09-16, 00:56:04,VALID,1001.11,VALID,0,VALID,91.6012,VALID,0,VALID,23.9336,VALID,96,VALID,1.09844,
2011-09-16, 00:57:04,VALID,1001.17,VALID,0,VALID,91.4257,VALID,0.112286,VALID,23.9336,VALID,96,VALID,0.567578,
2011-09-16, 00:58:04,VALID,1001.11,VALID,0,VALID,91.2274,VALID,0,VALID,23.9531,VALID,123,VALID,0.829687,
2011-09-16, 00:59:04,VALID,1001.11,VALID,0,VALID,91.09,VALID,0,VALID,23.9921,VALID,123,VALID,0.185156,
2011-09-16, 01:00:04,VALID,1001.13,VALID,0,VALID,90.9603,VALID,0,VALID,23.9939,VALID,123,VALID,0.349609,
2011-09-16, 01:01:04,VALID,1001.15,VALID,0,VALID,90.8917,VALID,0,VALID,23.9921,VALID,139,VALID,0.872656,
2011-09-16, 01:02:04,VALID,1001.12,VALID,0,VALID,90.8154,VALID,0.112286,VALID,24.0116,VALID,139,VALID,0.728906,
2011-09-16, 01:03:04,VALID,1001.13,VALID,0,VALID,90.6475,VALID,0.112286,VALID,24.0311,VALID,139,VALID,0.566406,
2011-09-16, 01:04:04,VALID,1001.11,VALID,0,VALID,90.4186,VALID,0,VALID,24.0506,VALID,139,VALID,0.624609,
2011-09-16, 01:05:04,VALID,1001.07,VALID,0,VALID,90.1516,VALID,0,VALID,24.0506,VALID,139,VALID,0.441016,
2011-09-16, 01:06:04,VALID,1001.08,VALID,0,VALID,89.9456,VALID,0.112286,VALID,24.0915,VALID,139,VALID,0.430859,
2011-09-16, 01:07:04,VALID,1001.08,VALID,0,VALID,89.9761,VALID,0.112286,VALID,24.0701,VALID,139,VALID,0.422656,
2011-09-16, 01:08:04,VALID,1001.04,VALID,0,VALID,89.8464,VALID,0,VALID,24.0897,VALID,139,VALID,0.495313,
2011-09-16, 01:09:04,VALID,1001.01,VALID,0,VALID,89.793,VALID,0.112286,VALID,24.0897,VALID,139,VALID,0.214062,
2011-09-16, 01:10:04,VALID,1001.02,VALID,0,VALID,89.6938,VALID,0,VALID,24.0915,VALID,139,VALID,0.50625,
2011-09-16, 01:11:04,VALID,1001,VALID,0,VALID,89.7014,VALID,0,VALID,24.111,VALID,139,VALID,0.500781,
2011-09-16, 01:12:04,VALID,1000.99,VALID,0,VALID,89.6709,VALID,0,VALID,24.1128,VALID,139,VALID,0.501562,
2011-09-16, 01:13:04,VALID,1000.98,VALID,0,VALID,89.8006,VALID,0,VALID,24.0915,VALID,139,VALID,0.190234,
2011-09-16, 01:14:04,VALID,1000.95,VALID,0,VALID,89.9609,VALID,0,VALID,24.072,VALID,139,VALID,0.234375,
2011-09-16, 01:15:04,VALID,1000.95,VALID,0,VALID,90.144,VALID,0,VALID,24.072,VALID,139,VALID,0.357031,
2011-09-16, 01:16:04,VALID,1000.92,VALID,0,VALID,90.3118,VALID,0,VALID,24.072,VALID,139,VALID,0.549219,
2011-09-16, 01:17:04,VALID,1000.88,VALID,0,VALID,90.2966,VALID,0,VALID,24.0525,VALID,138,VALID,0.596875,
2011-09-16, 01:18:04,VALID,1000.9,VALID,0,VALID,90.2584,VALID,0,VALID,24.0525,VALID,138,VALID,0.482031,
2011-09-16, 01:19:04,VALID,1000.89,VALID,0,VALID,90.3347,VALID,0,VALID,24.0738,VALID,133,VALID,0.585156,
2011-09-16, 01:20:04,VALID,1000.85,VALID,0,VALID,90.2584,VALID,0,VALID,24.0134,VALID,99,VALID,1.1668,
2011-09-16, 01:21:04,VALID,1000.87,VALID,0,VALID,90.1668,VALID,0,VALID,24.0329,VALID,99,VALID,0.886328,
2011-09-16, 01:22:04,VALID,1000.84,VALID,0,VALID,90.2355,VALID,0,VALID,24.0525,VALID,99,VALID,0.804297,
2011-09-16, 01:23:04,VALID,1000.8,VALID,0,VALID,90.2737,VALID,0,VALID,24.0933,VALID,99,VALID,0.540625,
2011-09-16, 01:24:04,VALID,1000.82,VALID,0,VALID,90.4339,VALID,0,VALID,24.072,VALID,99,VALID,0.446094,
2011-09-16, 01:25:04,VALID,1000.84,VALID,0,VALID,90.6399,VALID,0.112286,VALID,24.0311,VALID,99,VALID,0.334766,
2011-09-16, 01:26:04,VALID,1000.83,VALID,0,VALID,90.8611,VALID,0.112286,VALID,24.0116,VALID,99,VALID,0.384766,
2011-09-16, 01:27:04,VALID,1000.83,VALID,0,VALID,91.0671,VALID,0,VALID,23.9726,VALID,99,VALID,0.352344,
2011-09-16, 01:28:04,VALID,1000.81,VALID,0,VALID,91.2655,VALID,0.112286,VALID,23.9336,VALID,99,VALID,0.527344,
2011-09-16, 01:29:04,VALID,1000.82,VALID,0,VALID,91.4105,VALID,0,VALID,23.914,VALID,99,VALID,0.833594,
2011-09-16, 01:30:04,VALID,1000.8,VALID,0,VALID,91.5707,VALID,0,VALID,23.875,VALID,69,VALID,1.02344,
2011-09-16, 01:31:04,VALID,1000.8,VALID,0,VALID,91.6775,VALID,0.112286,VALID,23.836,VALID,53,VALID,0.875781,
2011-09-16, 01:32:04,VALID,1000.78,VALID,0,VALID,91.792,VALID,0.112286,VALID,23.8165,VALID,53,VALID,0.652344,
2011-09-16, 01:33:04,VALID,1000.8,VALID,0,VALID,91.8683,VALID,0,VALID,23.797,VALID,53,VALID,0.522656,
2011-09-16, 01:34:04,VALID,1000.75,VALID,0,VALID,91.9674,VALID,0,VALID,23.7775,VALID,53,VALID,0.546094,
2011-09-16, 01:35:04,VALID,1000.71,VALID,0.5,VALID,92.0361,VALID,0,VALID,23.7579,VALID,53,VALID,0.751172,
2011-09-16, 01:36:04,VALID,1000.74,VALID,0,VALID,92.059,VALID,0.112286,VALID,23.7189,VALID,53,VALID,0.378516,
2011-09-16, 01:37:04,VALID,1000.71,VALID,0,VALID,92.0971,VALID,0.112286,VALID,23.7189,VALID,53,VALID,0.266797,
2011-09-16, 01:38:04,VALID,1000.68,VALID,0,VALID,92.1124,VALID,0.112286,VALID,23.6799,VALID,53,VALID,0.607813,
2011-09-16, 01:39:04,VALID,1000.69,VALID,0,VALID,92.1277,VALID,0.112286,VALID,23.6817,VALID,53,VALID,0.587109,
2011-09-16, 01:40:04,VALID,1000.67,VALID,0,VALID,92.1582,VALID,0.112286,VALID,23.6799,VALID,53,VALID,0.671875,
2011-09-16, 01:41:04,VALID,1000.7,VALID,0,VALID,92.1582,VALID,0,VALID,23.6604,VALID,53,VALID,0.514453,
2011-09-16, 01:42:04,VALID,1000.7,VALID,0,VALID,92.1887,VALID,0,VALID,23.6604,VALID,53,VALID,0.558594,
2011-09-16, 01:43:04,VALID,1000.72,VALID,0,VALID,92.2116,VALID,0.112286,VALID,23.7012,VALID,53,VALID,0.231641,
2011-09-16, 01:44:04,VALID,1000.71,VALID,0,VALID,92.2116,VALID,0,VALID,23.6604,VALID,53,VALID,0.232812,
2011-09-16, 01:45:04,VALID,1000.7,VALID,0,VALID,92.2192,VALID,0,VALID,23.6604,VALID,53,VALID,0.00820312,
2011-09-16, 01:46:04,VALID,1000.72,VALID,0,VALID,92.1887,VALID,0.112286,VALID,23.6604,VALID,53,VALID,0,
2011-09-16, 01:47:04,VALID,1000.73,VALID,0,VALID,92.204,VALID,0,VALID,23.6604,VALID,53,VALID,0,
2011-09-16, 01:48:04,VALID,1000.73,VALID,0,VALID,92.2268,VALID,0.112286,VALID,23.6604,VALID,53,VALID,0,
2011-09-16, 01:49:04,VALID,1000.73,VALID,0,VALID,92.2345,VALID,0.112286,VALID,23.6604,VALID,53,VALID,0,
2011-09-16, 01:50:04,VALID,1000.76,VALID,0,VALID,92.2726,VALID,0,VALID,23.6409,VALID,53,VALID,0,
2011-09-16, 01:51:04,VALID,1000.76,VALID,0,VALID,92.3184,VALID,0,VALID,23.6622,VALID,53,VALID,0,
2011-09-16, 01:52:04,VALID,1000.77,VALID,0,VALID,92.4176,VALID,0,VALID,23.6604,VALID,54,VALID,0.668359,
2011-09-16, 01:53:04,VALID,1000.76,VALID,0,VALID,92.5168,VALID,0,VALID,23.6994,VALID,62,VALID,0.834766,
2011-09-16, 01:54:04,VALID,1000.76,VALID,0,VALID,92.5702,VALID,0,VALID,23.7012,VALID,128,VALID,1.31172,
2011-09-16, 01:55:04,VALID,1000.78,VALID,0,VALID,92.5549,VALID,0,VALID,23.6994,VALID,132,VALID,1.18555,
2011-09-16, 01:56:04,VALID,1000.77,VALID,0,VALID,92.5168,VALID,0,VALID,23.7597,VALID,132,VALID,1.29766,
2011-09-16, 01:57:04,VALID,1000.77,VALID,0,VALID,92.4557,VALID,0,VALID,23.7793,VALID,132,VALID,1.35312,
2011-09-16, 01:58:04,VALID,1000.77,VALID,0,VALID,92.2803,VALID,0,VALID,23.7988,VALID,132,VALID,1.20664,
2011-09-16, 01:59:04,VALID,1000.77,VALID,0,VALID,92.0514,VALID,0,VALID,23.8573,VALID,132,VALID,0.854297,
2011-09-16, 02:00:04,VALID,1000.79,VALID,0,VALID,91.7614,VALID,0,VALID,23.8768,VALID,132,VALID,1.16133,
2011-09-16, 02:01:04,VALID,1000.79,VALID,0,VALID,91.441,VALID,0,VALID,23.8945,VALID,132,VALID,1.02578,
2011-09-16, 02:02:04,VALID,1000.76,VALID,0,VALID,91.1053,VALID,0,VALID,23.8945,VALID,132,VALID,0.777344,
2011-09-16, 02:03:04,VALID,1000.76,VALID,0,VALID,90.7925,VALID,0,VALID,23.9549,VALID,132,VALID,0.838281,
2011-09-16, 02:04:04,VALID,1000.76,VALID,0,VALID,90.4263,VALID,0,VALID,23.9549,VALID,132,VALID,0.976953,
2011-09-16, 02:05:04,VALID,1000.73,VALID,0,VALID,90.0829,VALID,0,VALID,23.9531,VALID,132,VALID,0.891016,
2011-09-16, 02:06:04,VALID,1000.69,VALID,0,VALID,89.9227,VALID,0,VALID,24.0134,VALID,132,VALID,0.448438,
2011-09-16, 02:07:04,VALID,1000.69,VALID,0,VALID,89.8006,VALID,0,VALID,23.9921,VALID,132,VALID,0,
2011-09-16, 02:08:04,VALID,1000.68,VALID,0,VALID,89.8617,VALID,0,VALID,24.0134,VALID,132,VALID,0.00429688,
2011-09-16, 02:09:04,VALID,1000.66,VALID,0,VALID,89.938,VALID,0,VALID,23.9939,VALID,132,VALID,0.0121094,
2011-09-16, 02:10:04,VALID,1000.68,VALID,0,VALID,89.8083,VALID,0,VALID,23.9762,VALID,132,VALID,0.244922,
2011-09-16, 02:11:04,VALID,1000.7,VALID,0,VALID,89.7777,VALID,0,VALID,23.9762,VALID,132,VALID,0,
2011-09-16, 02:12:04,VALID,1000.7,VALID,0,VALID,89.7243,VALID,0,VALID,23.9354,VALID,132,VALID,0,
2011-09-16, 02:13:04,VALID,1000.71,VALID,0,VALID,89.732,VALID,0,VALID,23.9372,VALID,132,VALID,0,
2011-09-16, 02:14:04,VALID,1000.73,VALID,0,VALID,89.7625,VALID,0,VALID,23.9177,VALID,132,VALID,0,
2011-09-16, 02:15:04,VALID,1000.75,VALID,0,VALID,89.9532,VALID,0,VALID,23.9177,VALID,132,VALID,0,
2011-09-16, 02:16:04,VALID,1000.73,VALID,0,VALID,90.0371,VALID,0,VALID,23.9177,VALID,132,VALID,0,
2011-09-16, 02:17:04,VALID,1000.72,VALID,0,VALID,90.2737,VALID,0,VALID,23.8963,VALID,132,VALID,0.511328,
2011-09-16, 02:18:04,VALID,1000.74,VALID,0,VALID,90.6094,VALID,0,VALID,23.9177,VALID,132,VALID,0.369922,
2011-09-16, 02:19:04,VALID,1000.75,VALID,0,VALID,90.8611,VALID,0,VALID,23.8963,VALID,132,VALID,0.517969,
2011-09-16, 02:20:04,VALID,1000.76,VALID,0,VALID,91.1358,VALID,0,VALID,23.8982,VALID,132,VALID,0.15,
2011-09-16, 02:21:04,VALID,1000.79,VALID,0,VALID,91.3266,VALID,0,VALID,23.8786,VALID,132,VALID,0.404687,
2011-09-16, 02:22:04,VALID,1000.76,VALID,0,VALID,91.5249,VALID,0,VALID,23.8591,VALID,132,VALID,0.569922,
2011-09-16, 02:23:04,VALID,1000.8,VALID,0,VALID,91.7157,VALID,0,VALID,23.8201,VALID,132,VALID,0.664063,
2011-09-16, 02:24:04,VALID,1000.79,VALID,0,VALID,91.853,VALID,0,VALID,23.8006,VALID,132,VALID,0.502734,
2011-09-16, 02:25:04,VALID,1000.8,VALID,0,VALID,91.914,VALID,0,VALID,23.7384,VALID,132,VALID,0.858984,
2011-09-16, 02:26:04,VALID,1000.78,VALID,0,VALID,92.0132,VALID,0,VALID,23.7579,VALID,92,VALID,0.952734,
2011-09-16, 02:27:04,VALID,1000.79,VALID,0,VALID,92.0209,VALID,0,VALID,23.7597,VALID,92,VALID,1.14531,
2011-09-16, 02:28:04,VALID,1000.77,VALID,0,VALID,91.9751,VALID,0,VALID,23.7597,VALID,92,VALID,0.701172,
2011-09-16, 02:29:04,VALID,1000.77,VALID,0,VALID,91.8988,VALID,0,VALID,23.7597,VALID,92,VALID,0.609375,
2011-09-16, 02:30:04,VALID,1000.77,VALID,0,VALID,91.7614,VALID,0,VALID,23.7402,VALID,92,VALID,1.28867,
2011-09-16, 02:31:04,VALID,1000.77,VALID,0,VALID,91.6241,VALID,0.112286,VALID,23.7579,VALID,92,VALID,1.42188,
2011-09-16, 02:32:04,VALID,1000.78,VALID,0,VALID,91.5631,VALID,0,VALID,23.7775,VALID,92,VALID,1.63398,
2011-09-16, 02:33:04,VALID,1000.79,VALID,0,VALID,91.38,VALID,0,VALID,23.7775,VALID,92,VALID,1.39648,
2011-09-16, 02:34:04,VALID,1000.79,VALID,0,VALID,91.0671,VALID,0,VALID,23.7988,VALID,115,VALID,1.37461,
2011-09-16, 02:35:04,VALID,1000.81,VALID,0,VALID,90.7162,VALID,0,VALID,23.8378,VALID,115,VALID,1.17148,
2011-09-16, 02:36:04,VALID,1000.86,VALID,0,VALID,90.5788,VALID,0.112286,VALID,23.8555,VALID,115,VALID,1.23008,
2011-09-16, 02:37:04,VALID,1000.83,VALID,0,VALID,90.4415,VALID,0,VALID,23.8555,VALID,115,VALID,0.791016,
2011-09-16, 02:38:04,VALID,1000.84,VALID,0,VALID,90.2737,VALID,0,VALID,23.8555,VALID,116,VALID,1.09375,
2011-09-16, 02:39:04,VALID,1000.83,VALID,0,VALID,90.0524,VALID,0,VALID,23.875,VALID,115,VALID,1.07031,
2011-09-16, 02:40:04,VALID,1000.83,VALID,0,VALID,89.938,VALID,0,VALID,23.8982,VALID,115,VALID,0.864844,
2011-09-16, 02:41:04,VALID,1000.84,VALID,0,VALID,89.9914,VALID,0,VALID,23.9177,VALID,115,VALID,0.873047,
2011-09-16, 02:42:04,VALID,1000.85,VALID,0,VALID,89.9456,VALID,0,VALID,23.8982,VALID,116,VALID,1.39023,
2011-09-16, 02:43:04,VALID,1000.86,VALID,0,VALID,89.8693,VALID,0,VALID,23.9159,VALID,103,VALID,1.32734,
2011-09-16, 02:44:04,VALID,1000.84,VALID,0,VALID,89.8922,VALID,0,VALID,23.9372,VALID,104,VALID,1.02969,
2011-09-16, 02:45:04,VALID,1000.86,VALID,0,VALID,90.0448,VALID,0,VALID,23.9567,VALID,104,VALID,1.04531,
2011-09-16, 02:46:04,VALID,1000.84,VALID,0,VALID,90.1974,VALID,0,VALID,23.9567,VALID,104,VALID,1.00078,
2011-09-16, 02:47:04,VALID,1000.85,VALID,0,VALID,90.1211,VALID,0,VALID,23.9372,VALID,104,VALID,1.24336,
2011-09-16, 02:48:04,VALID,1000.81,VALID,0,VALID,90.0143,VALID,0,VALID,23.9372,VALID,104,VALID,1.1832,
2011-09-16, 02:49:04,VALID,1000.87,VALID,0,VALID,90.1745,VALID,0,VALID,23.9354,VALID,104,VALID,1.09961,
2011-09-16, 02:50:04,VALID,1000.82,VALID,0,VALID,90.1211,VALID,0,VALID,23.9372,VALID,104,VALID,1.24375,
2011-09-16, 02:51:04,VALID,1000.83,VALID,0,VALID,90.2813,VALID,0,VALID,23.9567,VALID,104,VALID,1.02891,
2011-09-16, 02:52:04,VALID,1000.79,VALID,0,VALID,90.3957,VALID,0,VALID,23.9567,VALID,104,VALID,0.967969,
2011-09-16, 02:53:04,VALID,1000.8,VALID,0,VALID,90.3576,VALID,0,VALID,23.9177,VALID,104,VALID,1.10156,
2011-09-16, 02:54:04,VALID,1000.8,VALID,0,VALID,90.3194,VALID,0,VALID,23.9177,VALID,104,VALID,1.00312,
2011-09-16, 02:55:04,VALID,1000.78,VALID,0,VALID,90.1974,VALID,0,VALID,23.9354,VALID,104,VALID,1.2082,
2011-09-16, 02:56:04,VALID,1000.83,VALID,0,VALID,90.2355,VALID,0,VALID,23.914,VALID,104,VALID,1.36953,
2011-09-16, 02:57:04,VALID,1000.83,VALID,0,VALID,90.205,VALID,0,VALID,23.9354,VALID,104,VALID,1.15703,
2011-09-16, 02:58:04,VALID,1000.83,VALID,0,VALID,89.9227,VALID,0.112286,VALID,23.914,VALID,110,VALID,1.51797,
2011-09-16, 02:59:04,VALID,1000.85,VALID,0,VALID,89.8159,VALID,0,VALID,23.914,VALID,110,VALID,1.44609,
2011-09-16, 03:00:04,VALID,1000.83,VALID,0,VALID,89.6175,VALID,0,VALID,23.9354,VALID,109,VALID,1.4168,
2011-09-16, 03:01:04,VALID,1000.82,VALID,0,VALID,89.2894,VALID,0,VALID,23.9336,VALID,128,VALID,1.84961,
2011-09-16, 03:02:04,VALID,1000.82,VALID,0,VALID,88.763,VALID,0,VALID,23.9744,VALID,128,VALID,1.82383,
2011-09-16, 03:03:04,VALID,1000.83,VALID,0,VALID,87.6643,VALID,0,VALID,23.9939,VALID,126,VALID,1.91992,
2011-09-16, 03:04:04,VALID,1000.83,VALID,0,VALID,87.6186,VALID,0,VALID,24.0311,VALID,118,VALID,1.50859,
2011-09-16, 03:05:04,VALID,1000.79,VALID,0,VALID,87.2905,VALID,0.112286,VALID,24.072,VALID,105,VALID,1.5707,
2011-09-16, 03:06:04,VALID,1000.81,VALID,0,VALID,87.527,VALID,0,VALID,24.0506,VALID,97,VALID,1.64219,
2011-09-16, 03:07:04,VALID,1000.82,VALID,0,VALID,87.4889,VALID,0,VALID,24.0525,VALID,109,VALID,1.7668,
2011-09-16, 03:08:04,VALID,1000.8,VALID,0,VALID,87.7483,VALID,0,VALID,24.0311,VALID,90,VALID,1.10938,
2011-09-16, 03:09:04,VALID,1000.79,VALID,0,VALID,88,VALID,0,VALID,24.0329,VALID,95,VALID,1.10586,
2011-09-16, 03:10:04,VALID,1000.82,VALID,0,VALID,88.1526,VALID,0,VALID,24.0134,VALID,110,VALID,0.408594,
2011-09-16, 03:11:04,VALID,1000.83,VALID,0,VALID,88.206,VALID,0,VALID,23.9531,VALID,126,VALID,1.28945,
2011-09-16, 03:12:04,VALID,1000.85,VALID,0,VALID,88.1832,VALID,0,VALID,23.9531,VALID,135,VALID,1.39336,
2011-09-16, 03:13:04,VALID,1000.83,VALID,0,VALID,88.0916,VALID,0,VALID,23.9744,VALID,141,VALID,1.13125,
2011-09-16, 03:14:04,VALID,1000.87,VALID,0,VALID,88.0382,VALID,0,VALID,23.9726,VALID,141,VALID,0.867578,
2011-09-16, 03:15:04,VALID,1000.87,VALID,0,VALID,88.0687,VALID,0,VALID,23.9744,VALID,141,VALID,0.973828,
2011-09-16, 03:16:04,VALID,1000.86,VALID,0,VALID,88.1068,VALID,0,VALID,23.9744,VALID,141,VALID,1.24453,
2011-09-16, 03:17:04,VALID,1000.88,VALID,0,VALID,88.0306,VALID,0.112286,VALID,23.9336,VALID,144,VALID,1.56328,
2011-09-16, 03:18:04,VALID,1000.88,VALID,0,VALID,88.1221,VALID,0,VALID,23.9549,VALID,120,VALID,1.38086,
2011-09-16, 03:19:04,VALID,1000.87,VALID,0,VALID,88.3663,VALID,0.112286,VALID,23.9549,VALID,134,VALID,1.26211,
2011-09-16, 03:20:04,VALID,1000.9,VALID,0,VALID,88.1679,VALID,0,VALID,23.9354,VALID,134,VALID,1.65547,
2011-09-16, 03:21:04,VALID,1000.92,VALID,0,VALID,87.8246,VALID,0,VALID,23.9531,VALID,125,VALID,1.85977,
2011-09-16, 03:22:04,VALID,1000.9,VALID,0,VALID,87.7406,VALID,0,VALID,23.9939,VALID,119,VALID,1.93008,
2011-09-16, 03:23:04,VALID,1000.9,VALID,0,VALID,87.7406,VALID,0,VALID,23.9531,VALID,122,VALID,1.79219,
2011-09-16, 03:24:04,VALID,1000.89,VALID,0,VALID,87.5041,VALID,0,VALID,23.9549,VALID,138,VALID,2.69062,
2011-09-16, 03:25:04,VALID,1000.93,VALID,0,VALID,86.9472,VALID,0,VALID,23.9939,VALID,134,VALID,1.96055,
2011-09-16, 03:26:04,VALID,1000.9,VALID,0.5,VALID,87.4507,VALID,0,VALID,23.9939,VALID,142,VALID,1.86055,
2011-09-16, 03:27:04,VALID,1000.86,VALID,0,VALID,87.8398,VALID,0,VALID,23.9744,VALID,148,VALID,1.73438,
2011-09-16, 03:28:04,VALID,1000.89,VALID,0,VALID,87.9771,VALID,0,VALID,23.9549,VALID,140,VALID,1.57813,
2011-09-16, 03:29:04,VALID,1000.88,VALID,0,VALID,88.3739,VALID,0,VALID,23.9159,VALID,141,VALID,1.35859,
2011-09-16, 03:30:04,VALID,1000.83,VALID,0,VALID,88.5036,VALID,0,VALID,23.8555,VALID,141,VALID,1.45664,
2011-09-16, 03:31:04,VALID,1000.8,VALID,0,VALID,88.5036,VALID,0,VALID,23.836,VALID,141,VALID,1.37188,
2011-09-16, 03:32:04,VALID,1000.8,VALID,0,VALID,88.1297,VALID,0,VALID,23.8165,VALID,124,VALID,1.43047,
2011-09-16, 03:33:04,VALID,1000.79,VALID,0,VALID,88.2366,VALID,0,VALID,23.8165,VALID,129,VALID,1.09336,
2011-09-16, 03:34:04,VALID,1000.8,VALID,0,VALID,88.3815,VALID,0,VALID,23.836,VALID,147,VALID,1.19687,
2011-09-16, 03:35:04,VALID,1000.77,VALID,0,VALID,88.2289,VALID,0,VALID,23.8378,VALID,154,VALID,1.5168,
2011-09-16, 03:36:04,VALID,1000.77,VALID,0,VALID,88.2137,VALID,0,VALID,23.8165,VALID,161,VALID,1.22969,
2011-09-16, 03:37:04,VALID,1000.79,VALID,0,VALID,88.3205,VALID,0,VALID,23.836,VALID,173,VALID,1.45078,
2011-09-16, 03:38:04,VALID,1000.75,VALID,0,VALID,88.5723,VALID,0,VALID,23.8768,VALID,175,VALID,1.20313,
2011-09-16, 03:39:04,VALID,1000.71,VALID,0,VALID,88.0229,VALID,0,VALID,23.8573,VALID,166,VALID,1.32656,
2011-09-16, 03:40:04,VALID,1000.67,VALID,0,VALID,88.0077,VALID,0,VALID,23.8963,VALID,172,VALID,1.19453,
2011-09-16, 03:41:04,VALID,1000.66,VALID,0,VALID,87.7406,VALID,0,VALID,23.9159,VALID,172,VALID,1.25391,
2011-09-16, 03:42:04,VALID,1000.63,VALID,0,VALID,88.1832,VALID,0.112286,VALID,23.914,VALID,195,VALID,0.823828,
2011-09-16, 03:43:04,VALID,1000.63,VALID,0,VALID,88.1068,VALID,0,VALID,23.914,VALID,197,VALID,0.564062,